Location: Buch
(49.7331°N, 12.1098°E)
Time: 01:23:25
(UTC+00:00)

PSLV R/B - Pass Details

Date: 12 May 2021
Orbit: 597 x 702 km, 97.9° (Epoch: 23 June)

Event Time Altitude Azimuth Distance (km) Brightness Sun altitude
Rises 23:20:18 0° 16° (NNE) 2,955 8.4 -21.8°
Reaches altitude 10° 23:22:35 10° 20° (NNE) 2,025 7.2 -21.8°
Maximum altitude 23:26:56 62° 101° (E) 701 3.7 -21.8°
Enters shadow 23:27:28 56° 138° (SE) 736 3.6 -21.7°
